Time,TemperatureF,DewpointF,PressureIn,WindDirection,WindDirectionDegrees,WindSpeedMPH,WindSpeedGustMPH,Humidity,HourlyPrecipIn,Conditions,Clouds,dailyrainin,SolarRadiationWatts/m^2,SoftwareType,DateUTC
2013-06-12 00:00:00,46.0,39.5,29.93,NE,37,0.0,4.0,78,0.00,,,0.00,0,Wunderground v.1.15,2013-06-12 07:00:00,
2013-06-12 00:10:00,44.8,38.7,29.94,SE,127,1.0,4.0,79,0.00,,,0.00,0,Wunderground v.1.15,2013-06-12 07:10:00,
2013-06-12 00:25:00,44.0,38.5,29.94,SE,138,1.0,4.0,81,0.00,,,0.00,0,Wunderground v.1.15,2013-06-12 07:25:00,
2013-06-12 00:30:00,44.1,38.6,29.94,SE,137,0.0,4.0,81,0.00,,,0.00,0,Wunderground v.1.15,2013-06-12 07:30:00,
2013-06-12 00:40:00,43.4,38.3,29.94,SE,137,0.0,4.0,82,0.00,,,0.00,0,Wunderground v.1.15,2013-06-12 07:40:00,
2013-06-12 00:50:00,43.0,37.9,29.94,SE,139,0.0,4.0,82,0.00,,,0.00,0,Wunderground v.1.15,2013-06-12 07:50:00,
2013-06-12 01:00:00,42.1,37.6,29.94,SW,220,2.0,4.0,84,0.00,,,0.00,0,Wunderground v.1.15,2013-06-12 08:00:00,
2013-06-12 01:10:00,41.1,36.9,29.94,SW,219,1.0,4.0,85,0.00,,,0.00,0,Wunderground v.1.15,2013-06-12 08:10:00,
2013-06-12 01:20:00,39.4,35.6,29.94,SW,220,1.0,4.0,86,0.00,,,0.00,0,Wunderground v.1.15,2013-06-12 08:20:00,
2013-06-12 01:30:00,38.6,35.1,29.94,SW,220,0.0,4.0,87,0.00,,,0.00,0,Wunderground v.1.15,2013-06-12 08:30:00,
2013-06-12 01:40:00,38.2,35.0,29.94,SW,220,0.0,4.0,88,0.00,,,0.00,0,Wunderground v.1.15,2013-06-12 08:40:00,
2013-06-12 01:50:00,38.0,34.8,29.94,SW,220,0.0,4.0,88,0.00,,,0.00,0,Wunderground v.1.15,2013-06-12 08:50:00,
2013-06-12 02:00:00,37.0,34.3,29.94,SW,228,3.0,4.0,90,0.00,,,0.00,0,Wunderground v.1.15,2013-06-12 09:00:00,
2013-06-12 02:05:00,36.8,34.4,29.94,SW,229,0.0,4.0,91,0.00,,,0.00,0,Wunderground v.1.15,2013-06-12 09:05:00,
2013-06-12 02:10:00,36.8,34.1,29.94,SW,228,1.0,4.0,90,0.00,,,0.00,0,Wunderground v.1.15,2013-06-12 09:10:00,
2013-06-12 02:20:00,36.0,33.6,29.94,SW,230,0.0,4.0,91,0.00,,,0.00,0,Wunderground v.1.15,2013-06-12 09:20:00,
2013-06-12 02:30:00,36.0,33.6,29.94,SW,230,2.0,4.0,91,0.00,,,0.00,0,Wunderground v.1.15,2013-06-12 09:30:00,
2013-06-12 02:40:00,35.3,33.5,29.94,SW,222,1.0,4.0,93,0.00,,,0.00,0,Wunderground v.1.15,2013-06-12 09:40:00,
2013-06-12 02:50:00,35.3,33.5,29.94,SW,217,0.0,4.0,93,0.00,,,0.00,0,Wunderground v.1.15,2013-06-12 09:50:00,
2013-06-12 03:00:00,35.1,33.0,29.94,SW,219,0.0,4.0,92,0.00,,,0.00,0,Wunderground v.1.15,2013-06-12 10:00:00,
2013-06-12 03:05:00,34.9,32.5,29.94,SW,218,0.0,4.0,91,0.00,,,0.00,0,Wunderground v.1.15,2013-06-12 10:05:00,
2013-06-12 03:10:00,34.9,33.1,29.93,SW,217,4.0,4.0,93,0.00,,,0.00,0,Wunderground v.1.15,2013-06-12 10:10:00,
2013-06-12 03:20:00,34.9,33.1,29.93,SSW,204,2.0,4.0,93,0.00,,,0.00,0,Wunderground v.1.15,2013-06-12 10:20:00,
2013-06-12 03:30:00,34.5,32.4,29.93,SSW,205,0.0,4.0,92,0.00,,,0.00,0,Wunderground v.1.15,2013-06-12 10:30:00,
2013-06-12 03:40:00,34.1,32.3,29.93,SSW,205,0.0,4.0,93,0.00,,,0.00,0,Wunderground v.1.15,2013-06-12 10:40:00,
2013-06-12 03:50:00,33.7,31.9,29.93,SSW,205,0.0,4.0,93,0.00,,,0.00,0,Wunderground v.1.15,2013-06-12 10:50:00,
2013-06-12 04:00:00,33.2,31.9,29.94,East,90,1.0,4.0,95,0.00,,,0.00,0,Wunderground v.1.15,2013-06-12 11:00:00,
2013-06-12 04:05:00,33.3,32.3,29.94,East,90,0.0,4.0,96,0.00,,,0.00,0,Wunderground v.1.15,2013-06-12 11:05:00,
2013-06-12 04:10:00,33.4,32.1,29.94,East,90,0.0,4.0,95,0.00,,,0.00,0,Wunderground v.1.15,2013-06-12 11:10:00,
2013-06-12 04:20:00,32.8,31.5,29.94,SSE,162,2.0,4.0,95,0.00,,,0.00,0,Wunderground v.1.15,2013-06-12 11:20:00,
2013-06-12 04:30:00,32.2,30.7,29.94,SSE,162,0.0,4.0,94,0.00,,,0.00,0,Wunderground v.1.15,2013-06-12 11:30:00,
2013-06-12 04:40:00,31.9,30.6,29.94,SSE,163,1.0,4.0,95,0.00,,,0.00,0,Wunderground v.1.15,2013-06-12 11:40:00,
2013-06-12 04:50:00,31.9,30.9,29.94,SSE,167,0.0,4.0,96,0.00,,,0.00,0,Wunderground v.1.15,2013-06-12 11:50:00,
2013-06-12 05:00:00,31.3,30.5,29.94,South,181,0.0,4.0,97,0.00,,,0.00,0,Wunderground v.1.15,2013-06-12 12:00:00,
2013-06-12 05:10:00,31.5,30.7,29.95,South,181,3.0,4.0,97,0.00,,,0.00,0,Wunderground v.1.15,2013-06-12 12:10:00,
2013-06-12 05:20:00,31.4,30.6,29.95,South,181,0.0,4.0,97,0.00,,,0.00,0,Wunderground v.1.15,2013-06-12 12:20:00,
2013-06-12 05:30:00,31.0,30.0,29.95,South,181,0.0,4.0,96,0.00,,,0.00,0,Wunderground v.1.15,2013-06-12 12:30:00,
2013-06-12 05:40:00,31.0,30.0,29.95,South,181,0.0,4.0,96,0.00,,,0.00,0,Wunderground v.1.15,2013-06-12 12:40:00,
2013-06-12 05:50:00,31.1,30.3,29.95,South,181,0.0,4.0,97,0.00,,,0.00,0,Wunderground v.1.15,2013-06-12 12:50:00,
2013-06-12 06:00:00,31.3,30.3,29.95,South,181,0.0,4.0,96,0.00,,,0.00,0,Wunderground v.1.15,2013-06-12 13:00:00,
2013-06-12 06:11:00,31.6,30.6,29.95,South,181,1.0,4.0,96,0.00,,,0.00,0,Wunderground v.1.15,2013-06-12 13:11:00,
2013-06-12 06:20:00,31.6,30.6,29.95,South,181,1.0,4.0,96,0.00,,,0.00,0,Wunderground v.1.15,2013-06-12 13:20:00,
2013-06-12 06:30:00,31.7,30.4,29.95,South,181,0.0,4.0,95,0.00,,,0.00,0,Wunderground v.1.15,2013-06-12 13:30:00,
2013-06-12 06:40:00,32.1,31.1,29.95,South,181,2.0,4.0,96,0.00,,,0.00,0,Wunderground v.1.15,2013-06-12 13:40:00,
2013-06-12 06:50:00,33.7,32.2,29.95,South,180,3.0,4.0,94,0.00,,,0.00,0,Wunderground v.1.15,2013-06-12 13:50:00,
2013-06-12 07:00:00,34.8,33.0,29.95,South,180,0.0,4.0,93,0.00,,,0.00,0,Wunderground v.1.15,2013-06-12 14:00:00,
2013-06-12 07:10:00,36.1,33.7,29.95,South,181,0.0,4.0,91,0.00,,,0.00,0,Wunderground v.1.15,2013-06-12 14:10:00,
2013-06-12 07:20:00,38.1,35.4,29.95,South,181,0.0,4.0,90,0.00,,,0.00,0,Wunderground v.1.15,2013-06-12 14:20:00,
2013-06-12 07:30:00,40.3,36.7,29.95,South,181,0.0,4.0,87,0.00,,,0.00,0,Wunderground v.1.15,2013-06-12 14:30:00,
2013-06-12 07:40:00,42.4,38.2,29.95,South,183,2.0,4.0,85,0.00,,,0.00,0,Wunderground v.1.15,2013-06-12 14:40:00,
2013-06-12 07:50:00,44.1,39.6,29.95,South,169,3.0,4.0,84,0.00,,,0.00,0,Wunderground v.1.15,2013-06-12 14:50:00,
2013-06-12 08:00:00,46.5,40.3,29.95,East,101,1.0,4.0,79,0.00,,,0.00,0,Wunderground v.1.15,2013-06-12 15:00:00,
2013-06-12 08:05:00,47.2,40.4,29.95,ENE,59,2.0,4.0,77,0.00,,,0.00,0,Wunderground v.1.15,2013-06-12 15:05:00,
2013-06-12 08:15:00,48.1,40.9,29.94,ENE,73,3.0,4.0,76,0.00,,,0.00,0,Wunderground v.1.15,2013-06-12 15:15:00,
2013-06-12 08:20:00,48.5,40.9,29.95,North,10,3.0,4.0,75,0.00,,,0.00,0,Wunderground v.1.15,2013-06-12 15:20:00,
2013-06-12 08:30:00,48.1,40.5,29.95,North,0,1.0,4.0,75,0.00,,,0.00,0,Wunderground v.1.15,2013-06-12 15:30:00,
2013-06-12 08:40:00,49.0,40.4,29.95,NNW,343,6.0,6.0,72,0.00,,,0.00,0,Wunderground v.1.15,2013-06-12 15:40:00,
2013-06-12 08:50:00,49.9,40.9,29.94,ESE,122,0.0,4.0,71,0.00,,,0.00,0,Wunderground v.1.15,2013-06-12 15:50:00,
2013-06-12 09:00:00,50.0,40.6,29.94,NNW,339,2.0,4.0,70,0.00,,,0.00,0,Wunderground v.1.15,2013-06-12 16:00:00,
2013-06-12 09:10:00,50.1,40.3,29.94,WSW,258,5.0,5.0,69,0.00,,,0.00,0,Wunderground v.1.15,2013-06-12 16:10:00,
2013-06-12 09:20:00,50.4,39.9,29.94,North,1,5.0,5.0,67,0.00,,,0.00,0,Wunderground v.1.15,2013-06-12 16:20:00,
2013-06-12 09:30:00,51.9,40.5,29.94,NNE,13,5.0,5.0,65,0.00,,,0.00,0,Wunderground v.1.15,2013-06-12 16:30:00,
2013-06-12 09:40:00,51.8,40.0,29.94,NNW,339,14.0,14.0,64,0.00,,,0.00,0,Wunderground v.1.15,2013-06-12 16:40:00,
2013-06-12 09:50:00,52.0,40.2,29.94,North,2,5.0,5.0,64,0.00,,,0.00,0,Wunderground v.1.15,2013-06-12 16:50:00,
2013-06-12 10:00:00,52.2,40.4,29.94,NW,326,6.0,6.0,64,0.00,,,0.00,0,Wunderground v.1.15,2013-06-12 17:00:00,
2013-06-12 10:10:00,52.7,40.5,29.94,WSW,239,5.0,5.0,63,0.00,,,0.00,0,Wunderground v.1.15,2013-06-12 17:10:00,
2013-06-12 10:20:00,52.7,40.9,29.94,North,5,2.0,4.0,64,0.00,,,0.00,0,Wunderground v.1.15,2013-06-12 17:20:00,
2013-06-12 10:30:00,53.4,41.1,29.94,North,352,9.0,9.0,63,0.00,,,0.00,0,Wunderground v.1.15,2013-06-12 17:30:00,
2013-06-12 10:40:00,54.2,41.5,29.94,North,1,5.0,5.0,62,0.00,,,0.00,0,Wunderground v.1.15,2013-06-12 17:40:00,
2013-06-12 10:50:00,54.1,41.4,29.94,North,5,4.0,5.0,62,0.00,,,0.00,0,Wunderground v.1.15,2013-06-12 17:50:00,
2013-06-12 11:00:00,54.2,41.5,29.94,NNW,342,6.0,6.0,62,0.00,,,0.00,0,Wunderground v.1.15,2013-06-12 18:00:00,
2013-06-12 11:10:00,54.8,41.6,29.93,South,180,6.0,6.0,61,0.00,,,0.00,0,Wunderground v.1.15,2013-06-12 18:10:00,
2013-06-12 11:20:00,54.5,41.3,29.94,SW,236,7.0,7.0,61,0.00,,,0.00,0,Wunderground v.1.15,2013-06-12 18:20:00,
2013-06-12 11:30:00,55.2,41.5,29.93,WSW,257,10.0,10.0,60,0.00,,,0.00,0,Wunderground v.1.15,2013-06-12 18:30:00,
2013-06-12 11:40:00,54.7,41.5,29.94,North,0,5.0,5.0,61,0.00,,,0.00,0,Wunderground v.1.15,2013-06-12 18:40:00,
2013-06-12 11:50:00,55.4,41.7,29.94,NNW,340,6.0,6.0,60,0.00,,,0.00,0,Wunderground v.1.15,2013-06-12 18:50:00,
2013-06-12 12:00:00,55.5,41.4,29.93,NNW,346,4.0,4.0,59,0.00,,,0.00,0,Wunderground v.1.15,2013-06-12 19:00:00,
2013-06-12 12:05:00,56.0,41.4,29.93,NW,325,15.0,15.0,58,0.00,,,0.00,0,Wunderground v.1.15,2013-06-12 19:05:00,
2013-06-12 12:10:00,55.8,41.7,29.93,NNW,343,3.0,4.0,59,0.00,,,0.00,0,Wunderground v.1.15,2013-06-12 19:10:00,
2013-06-12 12:20:00,55.6,41.5,29.93,North,350,11.0,11.0,59,0.00,,,0.00,0,Wunderground v.1.15,2013-06-12 19:20:00,
2013-06-12 12:30:00,56.2,41.2,29.93,NNE,15,11.0,11.0,57,0.00,,,0.00,0,Wunderground v.1.15,2013-06-12 19:30:00,
2013-06-12 12:40:00,55.4,41.3,29.93,NNW,327,12.0,12.0,59,0.00,,,0.00,0,Wunderground v.1.15,2013-06-12 19:40:00,
2013-06-12 12:50:00,56.6,41.1,29.93,WSW,255,17.0,17.0,56,0.00,,,0.00,0,Wunderground v.1.15,2013-06-12 19:50:00,
2013-06-12 13:00:00,57.4,41.4,29.93,NNW,335,9.0,9.0,55,0.00,,,0.00,0,Wunderground v.1.15,2013-06-12 20:00:00,
2013-06-12 13:10:00,59.1,42.5,29.93,SSW,192,3.0,4.0,54,0.00,,,0.00,0,Wunderground v.1.15,2013-06-12 20:10:00,
2013-06-12 13:20:00,57.8,42.2,29.93,NNW,337,6.0,6.0,56,0.00,,,0.00,0,Wunderground v.1.15,2013-06-12 20:20:00,
2013-06-12 13:30:00,57.6,41.5,29.93,WNW,290,6.0,6.0,55,0.00,,,0.00,0,Wunderground v.1.15,2013-06-12 20:30:00,
2013-06-12 13:40:00,57.5,41.9,29.93,NNE,15,9.0,9.0,56,0.00,,,0.00,0,Wunderground v.1.15,2013-06-12 20:40:00,
2013-06-12 13:50:00,58.5,41.4,29.93,NNW,347,9.0,9.0,53,0.00,,,0.00,0,Wunderground v.1.15,2013-06-12 20:50:00,
2013-06-12 14:00:00,58.2,41.6,29.92,NNW,342,19.0,19.0,54,0.00,,,0.00,0,Wunderground v.1.15,2013-06-12 21:00:00,
2013-06-12 14:05:00,58.8,42.2,29.92,NW,306,8.0,19.0,54,0.00,,,0.00,0,Wunderground v.1.15,2013-06-12 21:05:00,
2013-06-12 14:10:00,58.3,41.2,29.92,WSW,258,9.0,9.0,53,0.00,,,0.00,0,Wunderground v.1.15,2013-06-12 21:10:00,
2013-06-12 14:20:00,59.0,41.9,29.92,NNW,340,10.0,10.0,53,0.00,,,0.00,0,Wunderground v.1.15,2013-06-12 21:20:00,
2013-06-12 14:30:00,59.0,42.4,29.92,West,276,13.0,13.0,54,0.00,,,0.00,0,Wunderground v.1.15,2013-06-12 21:30:00,
2013-06-12 14:40:00,59.2,42.1,29.92,WSW,239,6.0,6.0,53,0.00,,,0.00,0,Wunderground v.1.15,2013-06-12 21:40:00,
2013-06-12 14:50:00,59.4,41.8,29.92,NW,305,6.0,6.0,52,0.00,,,0.00,0,Wunderground v.1.15,2013-06-12 21:50:00,
2013-06-12 15:00:00,59.0,41.9,29.92,WNW,298,11.0,11.0,53,0.00,,,0.00,0,Wunderground v.1.15,2013-06-12 22:00:00,
2013-06-12 15:05:00,59.1,41.0,29.92,WSW,244,11.0,11.0,51,0.00,,,0.00,0,Wunderground v.1.15,2013-06-12 22:05:00,
2013-06-12 15:10:00,59.1,41.0,29.92,WNW,283,8.0,8.0,51,0.00,,,0.00,0,Wunderground v.1.15,2013-06-12 22:10:00,
2013-06-12 15:20:00,59.6,40.4,29.92,WSW,254,10.0,10.0,49,0.00,,,0.00,0,Wunderground v.1.15,2013-06-12 22:20:00,
2013-06-12 15:30:00,58.9,41.8,29.92,WSW,237,12.0,12.0,53,0.00,,,0.00,0,Wunderground v.1.15,2013-06-12 22:30:00,
2013-06-12 15:40:00,59.2,41.6,29.92,WSW,252,16.0,16.0,52,0.00,,,0.00,0,Wunderground v.1.15,2013-06-12 22:40:00,
2013-06-12 15:50:00,59.1,42.0,29.92,WSW,257,12.0,12.0,53,0.00,,,0.00,0,Wunderground v.1.15,2013-06-12 22:50:00,
2013-06-12 16:00:00,59.4,41.8,29.92,SW,214,17.0,17.0,52,0.00,,,0.00,0,Wunderground v.1.15,2013-06-12 23:00:00,
2013-06-12 16:10:00,58.7,41.6,29.92,SSW,212,6.0,6.0,53,0.00,,,0.00,0,Wunderground v.1.15,2013-06-12 23:10:00,
2013-06-12 16:20:00,58.7,41.1,29.92,West,276,12.0,12.0,52,0.00,,,0.00,0,Wunderground v.1.15,2013-06-12 23:20:00,
2013-06-12 16:30:00,59.0,41.9,29.93,WNW,287,4.0,4.0,53,0.00,,,0.00,0,Wunderground v.1.15,2013-06-12 23:30:00,
2013-06-12 16:40:00,59.1,42.0,29.93,WSW,248,13.0,13.0,53,0.00,,,0.00,0,Wunderground v.1.15,2013-06-12 23:40:00,
2013-06-12 16:50:00,59.0,41.9,29.93,WSW,256,9.0,9.0,53,0.00,,,0.00,0,Wunderground v.1.15,2013-06-12 23:50:00,
2013-06-12 17:00:00,57.7,41.2,29.92,WSW,237,5.0,5.0,54,0.00,,,0.00,0,Wunderground v.1.15,2013-06-13 00:00:00,
2013-06-12 17:10:00,57.5,41.4,29.92,SW,235,8.0,8.0,55,0.00,,,0.00,0,Wunderground v.1.15,2013-06-13 00:10:00,
2013-06-12 17:20:00,58.6,41.5,29.92,NNW,339,11.0,11.0,53,0.00,,,0.00,0,Wunderground v.1.15,2013-06-13 00:20:00,
2013-06-12 17:30:00,58.4,41.3,29.92,SW,230,12.0,12.0,53,0.00,,,0.00,0,Wunderground v.1.15,2013-06-13 00:30:00,
2013-06-12 17:40:00,58.1,42.0,29.92,West,270,6.0,6.0,55,0.00,,,0.00,0,Wunderground v.1.15,2013-06-13 00:40:00,
2013-06-12 17:50:00,57.4,41.8,29.92,West,281,6.0,6.0,56,0.00,,,0.00,0,Wunderground v.1.15,2013-06-13 00:50:00,
2013-06-12 18:00:00,56.8,41.7,29.92,WNW,292,5.0,5.0,57,0.00,,,0.00,0,Wunderground v.1.15,2013-06-13 01:00:00,
2013-06-12 18:05:00,57.3,41.7,29.92,SSW,201,10.0,10.0,56,0.00,,,0.00,0,Wunderground v.1.15,2013-06-13 01:05:00,
2013-06-12 18:10:00,56.8,41.3,29.92,North,350,16.0,16.0,56,0.00,,,0.00,0,Wunderground v.1.15,2013-06-13 01:10:00,
2013-06-12 18:20:00,56.7,41.6,29.92,WSW,241,12.0,12.0,57,0.00,,,0.00,0,Wunderground v.1.15,2013-06-13 01:20:00,
2013-06-12 18:30:00,56.1,41.1,29.92,West,260,17.0,17.0,57,0.00,,,0.00,0,Wunderground v.1.15,2013-06-13 01:30:00,
2013-06-12 18:40:00,56.0,41.0,29.93,South,187,5.0,5.0,57,0.00,,,0.00,0,Wunderground v.1.15,2013-06-13 01:40:00,
2013-06-12 18:50:00,55.5,41.0,29.93,West,261,18.0,18.0,58,0.00,,,0.00,0,Wunderground v.1.15,2013-06-13 01:50:00,
2013-06-12 19:00:00,55.4,40.4,29.93,North,358,14.0,14.0,57,0.00,,,0.00,0,Wunderground v.1.15,2013-06-13 02:00:00,
2013-06-12 19:05:00,54.9,39.9,29.92,WSW,256,24.0,24.0,57,0.00,,,0.00,0,Wunderground v.1.15,2013-06-13 02:05:00,
2013-06-12 19:10:00,54.6,40.1,29.93,WSW,257,15.0,15.0,58,0.00,,,0.00,0,Wunderground v.1.15,2013-06-13 02:10:00,
2013-06-12 19:20:00,55.0,40.9,29.93,West,260,11.0,11.0,59,0.00,,,0.00,0,Wunderground v.1.15,2013-06-13 02:20:00,
2013-06-12 19:30:00,54.5,40.9,29.94,West,259,9.0,9.0,60,0.00,,,0.00,0,Wunderground v.1.15,2013-06-13 02:30:00,
2013-06-12 19:40:00,53.9,40.8,29.94,NNW,337,5.0,5.0,61,0.00,,,0.00,0,Wunderground v.1.15,2013-06-13 02:40:00,
2013-06-12 19:50:00,53.4,41.5,29.94,NNW,345,4.0,4.0,64,0.00,,,0.00,0,Wunderground v.1.15,2013-06-13 02:50:00,
2013-06-12 20:00:00,52.8,41.4,29.94,WNW,285,6.0,6.0,65,0.00,,,0.00,0,Wunderground v.1.15,2013-06-13 03:00:00,
2013-06-12 20:10:00,52.3,41.3,29.94,SE,134,4.0,4.0,66,0.00,,,0.00,0,Wunderground v.1.15,2013-06-13 03:10:00,
2013-06-12 20:20:00,51.9,40.9,29.94,SSW,207,2.0,4.0,66,0.00,,,0.00,0,Wunderground v.1.15,2013-06-13 03:20:00,
2013-06-12 20:30:00,51.0,40.8,29.94,NW,310,8.0,8.0,68,0.00,,,0.00,0,Wunderground v.1.15,2013-06-13 03:30:00,
2013-06-12 20:40:00,50.3,40.9,29.95,NNW,335,8.0,8.0,70,0.00,,,0.00,0,Wunderground v.1.15,2013-06-13 03:40:00,
2013-06-12 20:50:00,49.8,41.1,29.95,NE,38,3.0,4.0,72,0.00,,,0.00,0,Wunderground v.1.15,2013-06-13 03:50:00,
2013-06-12 21:00:00,49.4,41.1,29.95,SSW,195,4.0,4.0,73,0.00,,,0.00,0,Wunderground v.1.15,2013-06-13 04:00:00,
2013-06-12 21:05:00,49.3,41.4,29.95,North,351,10.0,10.0,74,0.00,,,0.00,0,Wunderground v.1.15,2013-06-13 04:05:00,
2013-06-12 21:10:00,49.2,40.9,29.95,WSW,242,11.0,11.0,73,0.00,,,0.00,0,Wunderground v.1.15,2013-06-13 04:10:00,
2013-06-12 21:15:00,49.0,41.1,29.95,NW,324,5.0,11.0,74,0.00,,,0.00,0,Wunderground v.1.15,2013-06-13 04:15:00,
2013-06-12 21:20:00,48.8,40.9,29.95,WNW,288,3.0,4.0,74,0.00,,,0.00,0,Wunderground v.1.15,2013-06-13 04:20:00,
2013-06-12 21:30:00,48.6,41.0,29.96,WNW,302,2.0,4.0,75,0.00,,,0.00,0,Wunderground v.1.15,2013-06-13 04:30:00,
2013-06-12 21:40:00,48.2,40.6,29.96,West,264,1.0,4.0,75,0.00,,,0.00,0,Wunderground v.1.15,2013-06-13 04:40:00,
2013-06-12 21:50:00,47.9,40.4,29.96,WNW,285,2.0,4.0,75,0.00,,,0.00,0,Wunderground v.1.15,2013-06-13 04:50:00,
2013-06-12 22:00:00,47.7,39.8,29.96,West,260,7.0,7.0,74,0.00,,,0.00,0,Wunderground v.1.15,2013-06-13 05:00:00,
2013-06-12 22:05:00,47.8,40.3,29.96,SSW,199,5.0,7.0,75,0.00,,,0.00,0,Wunderground v.1.15,2013-06-13 05:05:00,
2013-06-12 22:10:00,47.9,40.4,29.97,WNW,282,11.0,11.0,75,0.00,,,0.00,0,Wunderground v.1.15,2013-06-13 05:10:00,
2013-06-12 22:20:00,47.9,40.4,29.97,WNW,289,6.0,6.0,75,0.00,,,0.00,0,Wunderground v.1.15,2013-06-13 05:20:00,
2013-06-12 22:30:00,47.6,40.4,29.97,West,272,0.0,4.0,76,0.00,,,0.00,0,Wunderground v.1.15,2013-06-13 05:30:00,
2013-06-12 22:40:00,47.6,40.4,29.97,West,276,0.0,4.0,76,0.00,,,0.00,0,Wunderground v.1.15,2013-06-13 05:40:00,
2013-06-12 22:50:00,47.2,40.4,29.96,WSW,244,6.0,6.0,77,0.00,,,0.00,0,Wunderground v.1.15,2013-06-13 05:50:00,
2013-06-12 23:00:00,47.0,40.2,29.96,WSW,237,4.0,4.0,77,0.00,,,0.00,0,Wunderground v.1.15,2013-06-13 06:00:00,
2013-06-12 23:05:00,47.0,40.2,29.96,West,275,5.0,5.0,77,0.00,,,0.00,0,Wunderground v.1.15,2013-06-13 06:05:00,
2013-06-12 23:10:00,47.0,40.2,29.96,WSW,256,2.0,4.0,77,0.00,,,0.00,0,Wunderground v.1.15,2013-06-13 06:10:00,
2013-06-12 23:20:00,47.1,40.3,29.96,WSW,245,0.0,4.0,77,0.00,,,0.00,0,Wunderground v.1.15,2013-06-13 06:20:00,
2013-06-12 23:30:00,46.9,40.4,29.96,NNW,327,1.0,4.0,78,0.00,,,0.00,0,Wunderground v.1.15,2013-06-13 06:30:00,
2013-06-12 23:40:00,46.6,40.4,29.96,West,261,3.0,4.0,79,0.00,,,0.00,0,Wunderground v.1.15,2013-06-13 06:40:00,
2013-06-12 23:50:00,46.4,40.2,29.96,NNW,348,2.0,4.0,79,0.00,,,0.00,0,Wunderground v.1.15,2013-06-13 06:50:00,